Hourly Data Report for May 25, 2021

VINELAND STATION RCS
ONTARIO
Current Station Operator: ECCC - MSC

43°11'00.000" N
79°24'00.000" W
79.20 m
6139148
71171
XVN

Download Data

Hourly Data (May 2021)
Hourly Data Report for May 25, 2021
TIME
LST
Temp Definition
°C
Dew Point Definition
°C
Rel Hum Definition
%
Precip. Amount Definition
mm

Wind Dir Definition
10's deg

Wind Spd Definition
km/h
Visibility Definition
km
Stn Press Definition
kPa
Hmdx Definition


Wind Chill Definition


Weather Definition


00:00 12.8 11.0 89 0.0 20 2   100.95     LegendNANA
01:00 13.8 11.9 88 0.0 6 3   100.91     LegendNANA
02:00 13.7 11.2 85 0.0 21 5   100.88     LegendNANA
03:00 13.4 11.3 87 0.0 5 2   100.85     LegendNANA
04:00 13.0 11.2 89 0.0 20 3   100.81     LegendNANA
05:00 14.8 13.3 90 0.0 4 2   100.79     LegendNANA
06:00 19.5 17.3 87 0.0 21 10   100.78     LegendNANA
07:00 21.1 17.9 82 0.0 21 18   100.75 27   LegendNANA
08:00 23.4 18.6 74 0.0 21 18   100.73 30   LegendNANA
09:00 25.3 18.9 68 0.0 22 24   100.69 32   LegendNANA
10:00 26.3 19.2 65 0.0 21 23   100.62 33   LegendNANA
11:00 27.0 19.1 62 0.0 21 25   100.60 34   LegendNANA
12:00 29.0 19.0 55 0.0 21 24   100.57 36   LegendNANA
13:00 30.7 18.5 48 0.0 21 23   100.49 37   LegendNANA
14:00 30.4 17.2 45 0.0 22 25   100.45 36   LegendNANA
15:00 30.3 15.6 41 0.0 22 29   100.42 35   LegendNANA
16:00 30.0 12.4 34 0.0 23 32   100.38 32   LegendNANA
17:00 29.7 12.3 34 0.0 23 31   100.37 32   LegendNANA
18:00 29.0 13.7 39 0.0 23 18   100.33 32   LegendNANA
19:00 27.4 14.6 46 0.0 22 17   100.33 31   LegendNANA
20:00 26.5 14.1 46 0.0 22 18   100.34 30   LegendNANA
21:00 25.4 14.0 49 0.0 21 16   100.34 29   LegendNANA
22:00 23.2 14.0 56 0.0 20 17   100.35 27   LegendNANA
23:00 22.3 14.2 60 0.0 21 14   100.33 26   LegendNANA

Notes on Data Quality.

Legend

  • E = Estimated
  • M = Missing
  • NA = Not Available*
  • [empty] = Indicates an unobserved value
Date modified: